• In Hungary
  • List of Countries
  • For 7 days
  • Water Temperature
  • Satellite Maps
  • Weather Map
  • News
  • Weather Widgets
  • user-avatar
    Login

    Hourly Weather Poborze

    Today, 20 November, Monday

    Time Temperature Precipitation Wind Pressure Humidity
    00:00 -1°C° 0 mm 4 mps 732 mmHg 88%
    01:00 -1°C° 0 mm 4 mps 732 mmHg 89%
    02:00 -1°C° 0.2 mm 4 mps 733 mmHg 90%
    03:00 -1°C° 0.2 mm 4 mps 733 mmHg 91%
    04:00 0°C° 0.2 mm 4 mps 733 mmHg 91%
    05:00 0°C° 1 mm 5 mps 734 mmHg 89%
    06:00 -1°C° 1 mm 6 mps 735 mmHg 86%
    07:00 -1°C° 1 mm 7 mps 735 mmHg 83%
    08:00 -1°C° 0.2 mm 7 mps 736 mmHg 80%
    09:00 -1°C° 0.2 mm 7 mps 737 mmHg 77%
    10:00 -1°C° 0.2 mm 7 mps 737 mmHg 75%
    11:00 -1°C° 0 mm 7 mps 738 mmHg 74%
    12:00 -1°C° 0 mm 6 mps 738 mmHg 73%
    13:00 -1°C° 0 mm 6 mps 738 mmHg 72%
    14:00 0°C° 0 mm 5 mps 739 mmHg 74%
    15:00 -1°C° 0 mm 4 mps 739 mmHg 76%
    16:00 -1°C° 0 mm 4 mps 739 mmHg 77%
    17:00 0°C° 0 mm 3 mps 739 mmHg 80%
    18:00 -1°C° 0 mm 3 mps 739 mmHg 82%
    19:00 -2°C° 0 mm 3 mps 739 mmHg 84%
    20:00 -2°C° 0 mm 3 mps 739 mmHg 86%
    21:00 -2°C° 0 mm 2 mps 739 mmHg 87%
    22:00 -2°C° 0 mm 2 mps 740 mmHg 89%
    23:00 -2°C° 0 mm 2 mps 740 mmHg 89%

    Tomorrow, 21 November, Tuesday

    Time Temperature Precipitation Wind Pressure Humidity
    00:00 -2°C° 0 mm 2 mps 740 mmHg 89%
    01:00 -2°C° 0 mm 2 mps 740 mmHg 89%
    02:00 -2°C° 0 mm 2 mps 740 mmHg 89%
    03:00 -2°C° 0 mm 2 mps 740 mmHg 89%
    04:00 0°C° 0 mm 1 mps 740 mmHg 88%
    05:00 -1°C° 0 mm 1 mps 740 mmHg 88%
    06:00 -1°C° 0 mm 1 mps 740 mmHg 88%
    07:00 -1°C° 0 mm 1 mps 740 mmHg 87%
    08:00 0°C° 0 mm 1 mps 740 mmHg 83%
    09:00 +1°C° 0 mm 1 mps 740 mmHg 80%
    10:00 +2°C° 0 mm 1 mps 741 mmHg 76%
    11:00 +2°C° 0 mm 1 mps 741 mmHg 74%
    12:00 +3°C° 0 mm 1 mps 741 mmHg 72%
    13:00 +3°C° 0 mm 1 mps 741 mmHg 70%
    14:00 +2°C° 0 mm 1 mps 741 mmHg 74%
    15:00 +2°C° 0 mm 1 mps 741 mmHg 77%
    16:00 +1°C° 0 mm 1 mps 741 mmHg 81%
    17:00 +1°C° 0 mm 1 mps 741 mmHg 82%
    18:00 0°C° 0 mm 1 mps 742 mmHg 83%
    19:00 0°C° 0 mm 1 mps 742 mmHg 84%
    20:00 0°C° 0 mm 1 mps 742 mmHg 85%
    21:00 0°C° 0 mm 1 mps 743 mmHg 86%
    22:00 0°C° 0 mm 1 mps 743 mmHg 87%
    23:00 0°C° 0 mm 1 mps 743 mmHg 87%

    Day after tomorrow, 22 November, Wednesday

    Time Temperature Precipitation Wind Pressure Humidity
    00:00 0°C° 0 mm 1 mps 744 mmHg 88%
    01:00 0°C° 0 mm 1 mps 744 mmHg 89%
    02:00 0°C° 0 mm 1 mps 744 mmHg 88%
    03:00 0°C° 0 mm 1 mps 744 mmHg 88%
    04:00 0°C° 0 mm 1 mps 744 mmHg 88%
    05:00 -2°C° 0 mm 2 mps 744 mmHg 86%
    06:00 -2°C° 0 mm 2 mps 744 mmHg 85%
    07:00 -2°C° 0 mm 2 mps 744 mmHg 83%
    08:00 -1°C° 0 mm 3 mps 744 mmHg 80%
    09:00 -2°C° 0 mm 4 mps 744 mmHg 77%
    10:00 -1°C° 0 mm 4 mps 744 mmHg 74%
    11:00 -1°C° 0.2 mm 5 mps 744 mmHg 74%
    12:00 -1°C° 0.2 mm 5 mps 744 mmHg 75%
    13:00 -1°C° 0.2 mm 5 mps 743 mmHg 76%
    14:00 -1°C° 0.2 mm 5 mps 743 mmHg 78%
    15:00 -1°C° 0.2 mm 5 mps 743 mmHg 81%
    16:00 -1°C° 0.2 mm 5 mps 743 mmHg 83%
    17:00 -1°C° 0.1 mm 5 mps 743 mmHg 86%
    18:00 -1°C° 0.1 mm 5 mps 743 mmHg 88%
    19:00 -1°C° 0.1 mm 5 mps 743 mmHg 90%
    20:00 -1°C° 0.1 mm 5 mps 743 mmHg 92%
    21:00 0°C° 0.1 mm 4 mps 743 mmHg 94%
    22:00 0°C° 0.1 mm 4 mps 743 mmHg 95%
    23:00 0°C° 0.1 mm 4 mps 743 mmHg 96%

    23 November, Thursday

    Time Temperature Precipitation Wind Pressure Humidity
    00:00 0°C° 0.1 mm 4 mps 743 mmHg 96%
    01:00 0°C° 0.1 mm 4 mps 743 mmHg 97%
    02:00 0°C° 0 mm 4 mps 743 mmHg 96%
    03:00 0°C° 0 mm 4 mps 743 mmHg 96%
    04:00 0°C° 0 mm 4 mps 743 mmHg 96%
    05:00 0°C° 0 mm 4 mps 743 mmHg 95%
    06:00 0°C° 0 mm 4 mps 743 mmHg 94%
    07:00 0°C° 0 mm 4 mps 743 mmHg 93%
    08:00 +1°C° 0 mm 5 mps 743 mmHg 89%
    09:00 +1°C° 0 mm 5 mps 743 mmHg 86%
    10:00 +2°C° 0 mm 5 mps 743 mmHg 82%
    11:00 +3°C° 0 mm 5 mps 743 mmHg 81%
    12:00 +3°C° 0 mm 5 mps 743 mmHg 79%
    13:00 +5°C° 0 mm 5 mps 743 mmHg 78%
    14:00 +4°C° 0 mm 4 mps 743 mmHg 81%
    15:00 +4°C° 0 mm 4 mps 744 mmHg 83%
    16:00 +3°C° 0 mm 4 mps 744 mmHg 86%
    17:00 +3°C° 0 mm 4 mps 744 mmHg 87%
    18:00 +3°C° 0 mm 4 mps 744 mmHg 88%
    19:00 +3°C° 0 mm 4 mps 745 mmHg 89%
    20:00 +3°C° 0 mm 3 mps 745 mmHg 90%
    21:00 +3°C° 0 mm 3 mps 745 mmHg 91%
    22:00 +3°C° 0 mm 3 mps 746 mmHg 93%
    23:00 +3°C° 0 mm 3 mps 746 mmHg 93%

    24 November, Friday

    Time Temperature Precipitation Wind Pressure Humidity
    00:00 +3°C° 0 mm 3 mps 746 mmHg 94%
    01:00 +3°C° 0 mm 3 mps 746 mmHg 94%
    02:00 +3°C° 0 mm 3 mps 746 mmHg 95%
    03:00 +3°C° 0 mm 3 mps 746 mmHg 95%
    04:00 +3°C° 0 mm 3 mps 746 mmHg 95%
    05:00 +3°C° 0 mm 3 mps 747 mmHg 95%
    06:00 +3°C° 0 mm 3 mps 747 mmHg 95%
    07:00 +3°C° 0 mm 3 mps 747 mmHg 95%
    08:00 +4°C° 0 mm 3 mps 747 mmHg 94%
    09:00 +4°C° 0 mm 3 mps 747 mmHg 92%
    10:00 +5°C° 0 mm 3 mps 748 mmHg 90%
    11:00 +7°C° 0 mm 3 mps 748 mmHg 88%
    12:00 +8°C° 0 mm 3 mps 747 mmHg 86%
    13:00 +8°C° 0 mm 3 mps 747 mmHg 84%
    14:00 +7°C° 0 mm 3 mps 747 mmHg 86%
    15:00 +5°C° 0 mm 3 mps 747 mmHg 88%
    16:00 +5°C° 0 mm 3 mps 747 mmHg 90%
    17:00 +5°C° 0 mm 2 mps 748 mmHg 90%
    18:00 +5°C° 0 mm 2 mps 748 mmHg 90%
    19:00 +5°C° 0 mm 2 mps 748 mmHg 90%
    20:00 +5°C° 0 mm 2 mps 748 mmHg 89%
    21:00 +5°C° 0 mm 2 mps 748 mmHg 89%
    22:00 +5°C° 0 mm 2 mps 749 mmHg 89%
    23:00 +5°C° 0 mm 2 mps 749 mmHg 88%

    25 November, Saturday

    Time Temperature Precipitation Wind Pressure Humidity
    00:00 +5°C° 0 mm 2 mps 749 mmHg 88%
    01:00 +4°C° 0 mm 3 mps 749 mmHg 88%
    02:00 +4°C° 0 mm 3 mps 749 mmHg 87%
    03:00 +3°C° 0 mm 3 mps 748 mmHg 87%
    04:00 +3°C° 0 mm 3 mps 748 mmHg 86%
    05:00 +3°C° 0 mm 3 mps 749 mmHg 85%
    06:00 +3°C° 0 mm 3 mps 749 mmHg 85%
    07:00 +3°C° 0 mm 3 mps 749 mmHg 84%
    08:00 +3°C° 0 mm 3 mps 749 mmHg 80%
    09:00 +4°C° 0 mm 4 mps 749 mmHg 77%
    10:00 +5°C° 0 mm 4 mps 749 mmHg 73%
    11:00 +6°C° 0 mm 4 mps 749 mmHg 72%
    12:00 +6°C° 0 mm 4 mps 749 mmHg 71%
    13:00 +7°C° 0 mm 4 mps 748 mmHg 71%
    14:00 +6°C° 0 mm 4 mps 748 mmHg 75%
    15:00 +5°C° 0 mm 4 mps 748 mmHg 79%
    16:00 +5°C° 0 mm 4 mps 748 mmHg 83%
    17:00 +5°C° 0 mm 5 mps 748 mmHg 83%
    18:00 +3°C° 0 mm 5 mps 748 mmHg 83%
    19:00 +3°C° 0 mm 5 mps 747 mmHg 83%
    20:00 +3°C° 0 mm 5 mps 747 mmHg 84%
    21:00 +3°C° 0 mm 5 mps 747 mmHg 84%
    22:00 +3°C° 0 mm 5 mps 747 mmHg 85%
    23:00 +3°C° 0 mm 5 mps 747 mmHg 85%
    Show more